Home   Weather   Victoria   Past weeks

Flag for Canada Past Weather in Victoria, British Columbia, Canada — Yesterday and Last 2 Weeks

Now
39 °F

Partly cloudy.


Feels Like: 33 °F
Forecast: 40 / 46 °F
Wind: 9 mph from Northwest

Location: Victoria Int. Airportb. C.

Current Time: Feb 21, 2017 at 4:35:18 am

Latest Report: Feb 21, 2017 at 4:00 am


Visibility: 15 mi

Pressure: 29.76 "Hg

Humidity: 93%

Dew Point: 37 °F

Location of VictoriaLocation

Past Weather in Victoria — Graph

°F

Victoria Temperature Yesterday

Maximum temperature yesterday: 46 °F (at 1:00 pm)
Minimum temperature yesterday: 36 °F (at 5:30 am)
Average temperature yesterday: 42 °F

High & Low Weather Summary for the Past Weeks

 TemperatureHumidityPressure
High54 °F (Feb 16, 12:00 pm)100% (Feb 7, 5:00 am)30.54 "Hg (Feb 7, 5:00 am)
Low25 °F (Feb 7, 8:00 pm)54% (Feb 13, 3:00 pm)29.16 "Hg (Feb 9, 3:00 pm)
Average39 °F88%29.73 "Hg
* Reported Feb 6 3:00 am — Feb 21 3:00 am, Victoria, Weather by CustomWeather, © 2017

Note: Actual official high and low records may vary slightly from our data, if they occured in-between our weather recording intervals... More about our weather records

Advertising

Victoria Weather History for the Previous 24 Hours

Scroll right to see more
 ConditionsComfort  
Time TempWeatherWind HumidityBarometerVisibility
3:00 am
Tue, Feb 21
39 °FOvercast.7 mph93%29.76 "Hg20 mi
2:20 am41 °FPartly cloudy.7 mph93%29.76 "Hg15 mi
1:31 am41 °FOvercast.6 mph93%29.76 "Hg15 mi
1:00 am41 °FOvercast.7 mph93%29.76 "Hg15 mi
12:00 am39 °FPartly cloudy.7 mph100%29.74 "Hg15 mi
11:52 pm
Mon, Feb 20
39 °FMostly cloudy.5 mph93%29.74 "Hg15 mi
11:42 pm39 °FPartly cloudy.6 mph100%29.74 "Hg15 mi
11:00 pm41 °FPartly cloudy.2 mph93%29.74 "Hg20 mi
10:38 pm41 °FMostly cloudy.3 mph93%29.75 "Hg20 mi
10:00 pm39 °FPassing clouds.3 mph93%29.73 "Hg20 mi
9:00 pm43 °FPartly cloudy.5 mph93%29.72 "Hg20 mi
8:00 pm43 °FMostly cloudy.5 mph93%29.71 "Hg20 mi
7:00 pm45 °FMostly cloudy.5 mph87%29.70 "Hg20 mi
6:00 pm45 °FMostly cloudy.7 mph93%29.69 "Hg20 mi
5:17 pm45 °FLight rain. Mostly cloudy.7 mph93%29.69 "Hg20 mi
5:00 pm46 °FMostly cloudy.7 mph82%29.68 "Hg20 mi
4:00 pm46 °FLight rain. Mostly cloudy.No wind82%29.66 "Hg30 mi
3:40 pm46 °FLight rain. Mostly cloudy.3 mph82%29.65 "Hg20 mi
3:00 pm46 °FMostly cloudy.5 mph82%29.63 "Hg20 mi
2:00 pm46 °FMostly cloudy.8 mph82%29.61 "Hg20 mi
1:00 pm46 °FOvercast.7 mph82%29.58 "Hg20 mi
12:00 pm45 °FOvercast.9 mph87%29.57 "Hg20 mi
11:31 am43 °FLight rain. Low clouds.8 mph93%29.57 "Hg15 mi
11:00 am43 °FLow clouds.9 mph87%29.56 "Hg15 mi
10:45 am41 °FLight rain. More clouds than sun.8 mph93%29.56 "Hg15 mi
10:13 am41 °FLight rain. Low clouds.8 mph87%29.55 "Hg15 mi
9:00 am39 °FMostly cloudy.6 mph100%29.54 "Hg20 mi
8:15 am39 °FLight rain. Mostly cloudy.8 mph100%29.54 "Hg20 mi
8:00 am39 °FCloudy.6 mph93%29.54 "Hg30 mi
7:00 am36 °FPartly cloudy.5 mph100%29.54 "Hg20 mi
6:00 am36 °FPartly cloudy.6 mph100%29.54 "Hg20 mi
5:30 am36 °FPartly cloudy.5 mph100%29.55 "Hg20 mi
5:00 am37 °FPassing clouds.5 mph100%29.55 "Hg20 mi
4:00 am39 °FOvercast.No wind93%29.57 "Hg20 mi
Weather by CustomWeather, © 2017

See weather overviewHow to use our weather pages